Back to catalog

CZ-2D DEB

AliveSSO
NORAD 38299·DEBRIS·🇨🇳 China

Launched Jun 15, 2010 from Jiuquan Satellite Launch Center

Loading…

Next Passes (next 24 hours)

TLE

FreshSource: Space-Track

Epoch: Sep 14, 2026, 09:55 UTC

1 38299U 10027D   26257.41331671  .00057946  00000-0  12879-2 0  9999
2 38299  97.6323 128.1860 0042217  30.0247 330.3407 15.42519872864766

Track CZ-2D DEB in real time with AllMySat

Download on the App Store